Wind_Speed
43 43 44 45 47 48 48 49 49 50 50 51 51 52 53 52 52 53 53 53 54 53 52 51 51 52 51 52 51 51 51 50 49 48 48 48 48 48 48 48 47 47 47
43 43 44 45 46 47 48 49 49 50 51 51 52 53 53 54 54 54 55 55 55 55 54 52 52 53 53 53 53 53 52 51 51 49 50 49 50 50 50 50 49 49 49
43 44 44 45 46 48 49 50 50 50 51 52 52 53 54 55 55 55 55 55 56 56 55 54 53 54 55 55 55 55 54 53 53 52 52 51 51 51 51 51 51 51 51
44 44 45 45 46 47 49 50 51 52 52 53 53 54 55 56 57 57 57 56 56 56 56 55 55 55 55 56 56 56 56 56 55 54 54 54 53 53 53 53 53 52 52
44 45 46 46 47 48 49 50 51 52 52 52 53 55 56 56 56 57 57 57 56 56 57 57 56 56 57 57 58 57 57 56 56 55 56 56 56 55 55 55 54 54 53
45 46 47 48 49 50 50 51 52 53 54 54 55 56 56 56 57 57 57 57 57 56 56 56 56 56 57 57 57 57 57 57 57 57 57 57 57 57 57 56 56 56 55
46 47 48 49 50 51 52 52 53 55 56 56 56 56 56 56 57 58 58 57 57 57 56 56 56 56 56 55 56 56 57 57 57 57 57 57 58 57 57 57 57 57 56
46 47 48 49 50 51 52 53 54 55 56 56 55 56 55 55 56 56 57 57 57 57 57 58 57 57 56 56 56 55 55 56 56 56 57 57 57 56 56 56 56 56 56
45 46 47 49 50 51 51 52 53 54 55 54 54 55 55 54 54 55 55 55 56 57 57 57 57 57 56 56 55 56 56 56 56 56 56 56 56 56 56 56 56 56 56
45 45 47 47 48 49 50 51 52 53 53 53 53 54 54 54 54 53 54 54 54 55 56 56 56 56 57 56 55 55 55 55 55 56 55 55 55 56 56 56 57 57 56
46 46 46 47 48 48 49 49 50 50 51 52 52 53 53 53 53 53 53 53 53 54 55 56 56 56 56 56 55 55 55 55 55 55 56 56 56 56 56 57 57 56 56
46 46 46 47 47 47 48 48 49 48 49 50 50 51 52 52 52 52 51 52 52 53 53 54 55 55 55 55 54 54 54 55 55 54 55 55 55 55 56 56 56 57 57
45 46 46 46 46 46 46 46 47 47 48 48 48 48 49 50 51 51 51 51 52 52 52 52 53 53 53 53 53 53 53 54 54 54 54 54 54 55 55 55 55 55 56
45 45 46 45 45 46 46 46 45 46 46 47 47 47 48 49 50 51 52 52 52 53 52 51 51 52 51 51 52 52 53 53 54 53 53 54 55 55 54 54 53 53 53
45 45 45 45 45 45 45 44 44 45 46 47 46 47 47 47 48 49 50 50 51 51 51 51 51 51 50 50 51 52 52 52 52 53 54 54 54 53 53 53 53 53 53
45 44 44 43 43 43 43 43 44 45 45 45 45 46 46 47 47 47 47 48 48 48 49 50 49 49 49 49 49 50 51 51 51 51 51 51 52 52 52 52 52 52 52
44 44 43 43 43 43 43 43 43 44 45 45 44 44 45 45 44 45 45 46 47 48 48 48 48 48 49 49 50 50 50 51 51 50 50 50 51 51 51 51 51 52 51
43 43 42 42 42 43 43 43 43 44 44 44 45 45 44 44 44 44 45 45 45 46 46 47 47 48 49 50 50 50 50 50 51 51 51 50 50 50 50 50 51 51 51
41 41 41 41 41 42 42 42 41 42 43 43 44 44 44 43 43 44 44 45 45 45 45 46 46 47 48 49 49 49 50 50 50 50 51 50 50 50 50 51 51 51 50
39 39 39 39 40 40 40 40 40 41 41 40 41 42 42 42 41 42 43 43 43 43 44 44 45 45 46 47 48 49 49 49 49 49 50 50 50 50 50 50 50 50 50
38 39 38 38 38 39 39 39 39 39 39 39 39 39 40 41 40 40 40 41 41 41 42 43 43 44 45 45 46 47 47 47 47 48 48 49 49 49 49 49 50 50 49
38 39 39 38 38 38 38 38 38 38 37 37 37 37 38 38 38 38 39 39 39 40 41 41 42 42 43 43 44 45 45 45 45 46 47 46 46 47 47 48 48 48 48
37 38 38 38 37 37 37 37 37 37 37 37 37 37 38 38 38 38 38 39 39 40 40 41 41 41 42 42 43 43 44 44 45 45 45 45 45 45 45 46 47 47 47
35 35 35 35 35 36 36 36 36 36 36 36 36 36 37 37 37 37 38 38 38 39 39 40 40 40 41 42 42 42 42 43 43 43 44 43 43 44 44 44 44 44 44
33 33 33 33 34 34 35 35 35 34 34 35 35 35 36 36 36 36 36 37 37 38 38 38 38 39 39 39 40 40 40 40 40 40 41 41 41 41 41 42 42 42 42
31 31 31 32 32 32 32 32 32 33 33 34 35 35 35 35 35 35 35 36 36 36 37 37 38 38 38 38 39 39 39 39 39 39 39 39 39 39 39 39 39 39 39
Wind_Direction
262 261 260 258 258 258 258 258 257 258 258 258 258 256 256 255 256 257 257 257 257 258 259 260 259 257 256 257 258 259 261 262 263 264 264 265 265 266 267 266 267 267 268
262 261 260 259 259 259 258 258 258 258 258 258 259 259 258 257 257 258 258 258 258 258 259 260 259 258 257 257 257 259 260 262 263 263 264 264 265 266 267 266 266 268 268
263 262 261 260 260 259 258 258 258 257 258 259 260 260 259 259 258 259 259 259 259 259 259 259 260 259 257 256 258 259 260 262 263 263 264 264 265 265 266 266 267 268 268
263 262 261 261 261 260 259 258 258 258 259 259 260 260 260 261 260 259 259 259 259 258 258 259 259 258 257 257 258 260 261 262 263 264 264 264 265 266 267 267 267 268 268
264 262 262 262 262 261 260 259 259 258 259 259 260 260 261 261 260 260 260 259 259 258 258 258 258 258 257 257 258 259 260 261 262 263 264 264 265 266 268 268 267 267 268
266 264 263 263 263 263 262 260 260 260 260 260 260 260 261 261 261 260 260 260 259 258 258 258 258 259 259 259 258 259 260 261 262 262 263 264 266 267 267 268 267 267 267
268 266 264 263 263 263 262 262 261 261 261 261 261 260 261 262 261 260 259 259 259 259 259 258 258 259 259 259 258 259 260 260 262 263 263 265 266 266 267 267 267 266 267
269 267 265 264 264 264 263 263 263 262 261 262 262 261 262 262 262 261 259 258 258 258 259 259 259 259 259 258 258 260 260 260 261 262 263 265 265 265 266 266 266 266 267
270 269 268 267 266 265 264 263 263 263 262 262 263 263 262 262 261 261 260 259 259 258 258 259 260 259 259 258 259 259 260 260 261 261 263 264 263 264 265 266 266 267 267
271 270 269 269 268 266 265 265 264 263 262 261 262 262 262 262 260 260 260 260 260 259 259 259 259 259 259 258 259 260 261 261 261 262 262 263 264 265 266 267 268 268 268
271 272 272 271 269 268 267 266 265 264 263 261 262 262 262 262 260 261 261 260 259 259 259 260 259 259 258 258 259 260 260 260 261 262 262 263 264 265 267 267 268 268 269
273 273 273 271 270 269 268 268 266 264 262 261 262 262 262 261 260 260 261 260 259 259 260 259 259 259 258 259 260 260 260 260 261 262 262 263 264 265 266 267 268 269 269
273 273 273 273 271 270 269 268 267 265 263 262 262 262 261 261 260 260 261 260 259 260 259 259 258 257 258 259 261 261 260 260 261 262 262 264 264 265 266 267 268 268 269
274 274 274 274 272 270 270 268 266 265 264 263 263 263 262 261 261 260 260 259 259 259 259 259 258 257 257 258 260 260 261 261 261 262 263 264 265 266 266 266 267 268 268
275 275 275 274 273 271 270 268 265 264 263 263 263 262 261 261 261 261 260 260 259 258 258 258 258 257 258 259 259 260 261 262 263 263 263 263 265 265 265 265 266 267 268
275 275 274 273 273 272 270 268 267 266 263 262 263 262 262 263 262 262 261 260 259 259 258 257 257 258 258 259 260 261 262 263 263 263 263 264 265 265 265 265 266 267 268
276 275 274 273 272 272 271 270 267 265 263 261 261 262 263 264 263 263 262 261 259 258 258 258 259 259 259 259 260 261 262 263 263 263 264 264 265 264 264 265 265 266 267
276 275 273 273 272 271 271 271 269 266 264 263 263 264 264 264 263 263 262 261 259 258 258 259 259 259 259 260 261 261 262 263 263 263 263 264 264 264 264 265 265 266 267
276 275 274 273 272 272 272 271 270 268 266 265 265 265 264 264 263 262 262 261 259 258 259 259 259 259 260 261 262 262 262 264 264 263 263 263 263 264 264 265 265 266 267
277 276 276 275 273 273 273 272 271 270 267 266 265 265 264 264 262 261 261 260 260 260 260 260 259 259 260 260 261 262 263 264 265 265 263 263 264 264 264 265 265 266 267
278 277 277 276 274 274 273 273 273 272 269 267 266 266 265 264 262 261 261 261 261 261 261 261 260 260 261 261 262 263 264 265 265 265 264 264 265 265 265 265 266 266 266
279 278 278 277 276 275 274 274 273 272 269 267 266 265 264 263 262 262 262 262 262 262 262 262 261 262 262 263 264 264 264 265 265 265 265 265 267 267 266 266 266 266 267
280 279 278 277 276 275 274 274 273 272 269 268 267 266 264 264 263 263 263 263 262 261 261 261 262 263 263 264 265 265 264 264 265 264 264 265 267 268 267 266 266 266 267
281 280 279 278 277 276 276 275 275 273 270 268 267 267 265 264 263 263 263 262 261 261 261 261 262 263 264 264 265 265 265 265 265 265 265 265 267 268 267 267 266 266 267
281 281 280 280 279 278 277 276 275 273 271 269 267 267 265 264 264 265 265 263 262 261 261 261 262 263 264 264 264 264 265 265 265 265 266 266 267 267 267 266 266 266 267
283 282 282 282 281 281 280 277 275 274 272 270 268 267 265 264 264 264 264 263 263 263 263 263 263 264 264 264 263 263 264 264 265 265 266 267 268 268 267 266 265 266 266
Height
5611 5612 5613 5614 5615 5617 5619 5621 5623 5625 5626 5628 5630 5632 5634 5636 5638 5641 5643 5644 5647 5649 5651 5652 5655 5657 5659 5662 5664 5667 5669 5671 5673 5676 5676 5677 5678 5679 5679 5680 5681 5681 5682
5599 5600 5601 5602 5603 5604 5606 5608 5610 5611 5613 5615 5616 5618 5620 5622 5624 5626 5628 5630 5633 5635 5637 5638 5640 5642 5645 5648 5650 5652 5655 5657 5659 5662 5663 5664 5664 5666 5667 5667 5668 5668 5669
5587 5587 5588 5589 5590 5591 5593 5594 5596 5598 5599 5601 5602 5604 5606 5608 5610 5612 5613 5615 5618 5620 5622 5624 5626 5628 5630 5633 5635 5638 5640 5642 5645 5647 5649 5650 5651 5651 5652 5653 5654 5655 5655
5574 5574 5575 5576 5577 5578 5579 5581 5582 5584 5585 5587 5588 5590 5591 5593 5595 5597 5598 5600 5602 5604 5606 5608 5610 5612 5615 5617 5620 5623 5625 5627 5630 5632 5634 5635 5636 5637 5637 5638 5639 5640 5641
5560 5561 5561 5562 5563 5564 5565 5566 5568 5569 5571 5572 5574 5575 5576 5577 5579 5581 5582 5584 5586 5589 5591 5593 5595 5597 5599 5601 5604 5607 5609 5612 5614 5616 5618 5620 5621 5621 5623 5623 5624 5625 5626
5547 5547 5548 5548 5549 5550 5551 5552 5553 5554 5556 5557 5558 5559 5560 5562 5563 5564 5566 5569 5571 5573 5575 5577 5579 5580 5582 5585 5588 5591 5593 5596 5598 5600 5602 5604 5605 5606 5607 5608 5609 5610 5612
5533 5533 5533 5534 5534 5535 5536 5537 5538 5539 5540 5541 5542 5543 5545 5546 5546 5548 5550 5552 5555 5557 5559 5561 5563 5565 5566 5569 5571 5574 5577 5579 5582 5584 5586 5588 5590 5591 5592 5593 5593 5594 5596
5519 5519 5519 5519 5520 5520 5521 5521 5522 5523 5525 5525 5526 5527 5528 5529 5530 5532 5533 5536 5538 5541 5543 5545 5547 5549 5551 5553 5556 5559 5561 5564 5566 5568 5570 5572 5573 5574 5575 5576 5577 5578 5580
5506 5505 5504 5505 5505 5505 5505 5506 5507 5508 5509 5510 5510 5512 5513 5514 5514 5516 5517 5519 5522 5524 5527 5529 5531 5534 5536 5538 5541 5544 5546 5548 5549 5552 5553 5555 5556 5558 5559 5560 5561 5562 5564
5492 5491 5490 5490 5490 5490 5490 5490 5491 5491 5492 5493 5495 5496 5497 5498 5499 5500 5501 5504 5506 5509 5511 5513 5515 5517 5519 5521 5525 5528 5531 5532 5534 5536 5538 5539 5541 5542 5543 5544 5545 5546 5547
5478 5477 5476 5476 5475 5475 5475 5475 5475 5476 5477 5478 5479 5480 5481 5482 5483 5484 5486 5488 5491 5493 5495 5497 5499 5501 5504 5507 5509 5512 5514 5516 5518 5520 5522 5524 5525 5526 5527 5528 5528 5529 5531
5464 5463 5462 5461 5461 5460 5460 5460 5460 5460 5461 5462 5463 5464 5465 5466 5468 5469 5470 5473 5475 5478 5480 5482 5484 5485 5488 5491 5494 5496 5498 5500 5502 5505 5507 5508 5509 5510 5511 5511 5512 5513 5514
5451 5449 5448 5447 5447 5446 5446 5446 5446 5446 5447 5447 5448 5449 5450 5451 5452 5454 5455 5457 5460 5462 5464 5466 5468 5470 5473 5475 5478 5480 5482 5484 5486 5489 5491 5492 5494 5495 5495 5495 5496 5497 5498
5437 5436 5435 5434 5433 5432 5432 5432 5432 5432 5433 5433 5434 5435 5436 5436 5437 5438 5440 5441 5444 5446 5448 5450 5453 5455 5457 5460 5462 5464 5467 5468 5471 5473 5475 5476 5477 5478 5479 5480 5480 5481 5482
5423 5422 5421 5420 5419 5418 5418 5418 5418 5418 5419 5420 5420 5421 5422 5423 5423 5423 5424 5426 5428 5430 5432 5435 5437 5439 5442 5445 5448 5450 5452 5453 5455 5457 5459 5460 5461 5462 5463 5464 5465 5465 5466
5410 5409 5407 5406 5405 5405 5404 5404 5403 5404 5405 5405 5406 5406 5407 5408 5408 5409 5410 5411 5413 5414 5417 5420 5422 5425 5428 5430 5433 5435 5437 5438 5440 5441 5442 5444 5445 5446 5447 5448 5449 5450 5451
5396 5395 5394 5393 5392 5391 5391 5390 5390 5390 5390 5391 5391 5392 5393 5393 5394 5395 5396 5397 5398 5400 5403 5406 5408 5411 5413 5416 5418 5420 5422 5423 5424 5425 5427 5428 5429 5430 5431 5432 5433 5434 5435
5382 5381 5381 5380 5379 5378 5377 5377 5377 5377 5377 5377 5378 5378 5379 5379 5380 5381 5382 5384 5385 5387 5389 5391 5394 5396 5399 5401 5403 5405 5406 5407 5408 5410 5411 5412 5413 5414 5415 5416 5417 5418 5419
5370 5369 5368 5367 5366 5365 5364 5364 5363 5363 5363 5364 5364 5364 5365 5366 5367 5368 5369 5370 5372 5374 5376 5378 5380 5382 5384 5386 5387 5389 5391 5392 5393 5394 5395 5396 5397 5398 5400 5401 5402 5403 5404
5357 5356 5355 5354 5353 5352 5351 5351 5350 5350 5350 5350 5351 5351 5352 5353 5354 5355 5356 5358 5359 5360 5362 5364 5366 5368 5369 5371 5373 5374 5375 5376 5377 5378 5379 5381 5382 5383 5384 5385 5386 5387 5388
5345 5344 5342 5341 5340 5339 5339 5338 5337 5337 5337 5337 5338 5338 5339 5340 5341 5342 5343 5345 5346 5347 5349 5350 5352 5354 5355 5357 5358 5359 5360 5361 5362 5363 5364 5365 5366 5367 5368 5369 5370 5371 5372
5333 5331 5330 5329 5328 5327 5326 5326 5325 5325 5325 5325 5325 5326 5326 5327 5328 5329 5331 5332 5333 5334 5336 5337 5339 5340 5342 5343 5344 5345 5346 5347 5348 5349 5349 5350 5351 5352 5353 5354 5355 5356 5357
5321 5319 5318 5317 5316 5315 5314 5314 5313 5313 5313 5313 5313 5314 5314 5315 5316 5317 5318 5319 5320 5322 5323 5324 5325 5327 5328 5329 5330 5331 5332 5333 5334 5335 5335 5336 5337 5337 5338 5339 5340 5341 5342
5309 5308 5306 5305 5304 5303 5302 5302 5301 5300 5300 5301 5301 5302 5302 5303 5304 5305 5306 5307 5308 5309 5310 5312 5313 5314 5315 5316 5317 5318 5318 5319 5320 5320 5321 5322 5323 5323 5324 5325 5326 5327 5328
5298 5297 5295 5294 5293 5292 5291 5290 5289 5289 5289 5289 5289 5290 5291 5291 5292 5293 5294 5294 5296 5297 5298 5299 5300 5301 5302 5303 5303 5304 5305 5306 5306 5307 5308 5309 5309 5310 5311 5312 5312 5313 5314
5287 5286 5285 5283 5282 5280 5279 5279 5278 5277 5277 5277 5278 5278 5279 5280 5280 5281 5282 5283 5284 5285 5286 5287 5288 5289 5289 5290 5291 5292 5292 5293 5293 5294 5295 5296 5297 5297 5298 5299 5299 5300 5301